Location: Camerons Lookout
(40.9833°S, 175.9333°E)
Time: 01:05:08
(UTC+00:00)

Delta 2 Rocket - Pass Details

Date: 14 January 2026
Orbit: 347 x 477 km, 35.6° (Epoch: 6 February)

Event Time Altitude Azimuth Distance (km) Brightness Sun altitude
Rises 09:16:50 0° 290° (WNW) 2,505 7.0 -13.9°
Reaches altitude 10° 09:19:06 10° 299° (WNW) 1,651 5.9 -14.2°
Maximum altitude 09:22:35 35° 6° (N) 806 3.7 -14.7°
Enters shadow 09:23:42 29° 42° (NE) 933 3.9 -14.8°
